Ardmore, OK

7:50 AM CST on November 22, 2017 (GMT -0600)
Ardmore Municipal

Weather History for KADM - October, 2013

Change the Weather History Date:

Wednesday, October 30, 2013

  Actual Average Record
Temperature  
Mean Temperature 68 °F -  
Max Temperature 72 °F 67 °F 84 °F (2003)
Min Temperature 65 °F 49 °F 33 °F (2012)
Cooling Degree Days 4    
Growing Degree Days 18 (Base 50)    
Moisture  
Dew Point 68 °F    
Average Humidity 92    
Maximum Humidity 100    
Minimum Humidity 87    
Precipitation  
Precipitation 0.00 in - - ()
Sea Level Pressure  
Sea Level Pressure 29.93 in    
Wind  
Wind Speed 9 mph (SSE)    
Max Wind Speed 15 mph    
Max Gust Speed 26 mph    
Visibility 10 miles    
Events Rain    
Averages and records for this station are not official NWS values.
T = Trace of Precipitation, MM = Missing Value Source: NWS Daily Summary

Daily Weather History Graph

Daily Weather History Graph

Search for Another Location

Airport or City:

Trip Planner

Search our weather history database for the weather conditions in past years. The results will help you decide how hot, cold, wet, or windy it might be!

Date:

Astronomy

Oct. 30, 2013 Rise Set
Actual Time 7:46 AM CDT 6:36 PM CDT
Civil Twilight 7:20 AM CDT 7:02 PM CDT
Nautical Twilight 6:50 AM CDT 7:31 PM CDT
Astronomical Twilight 6:21 AM CDT 8:01 PM CDT
Moon 3:46 AM CDT (10/30) 4:13 PM CDT (10/30)
Length of Visible Light 11h 41m
Length of Day
10h 50m
Waning Crescent, 17% of the Moon is Illuminated
Oct 30
Waning Crescent
Nov 3
New
Nov 9
First Quarter
Nov 17
Full
Nov 25
Last Quarter

Hourly Weather History & Observations

Time (CDT) Temp. Dew Point Humidity Pressure Visibility Wind Dir Wind Speed Gust Speed Precip Events Conditions
12:15 AM 70.7 °F 68.9 °F 94% 30.00 in 10.0 mi South 5.8 mph - N/A   Overcast
12:35 AM 70.7 °F 68.9 °F 94% 29.99 in 10.0 mi SSE 8.1 mph - N/A   Overcast
12:55 AM 70.7 °F 68.9 °F 94% 29.99 in 10.0 mi SSE 9.2 mph - N/A   Overcast
1:15 AM 70.7 °F 68.9 °F 94% 29.98 in 10.0 mi SSE 9.2 mph - N/A   Overcast
1:35 AM 70.7 °F 68.9 °F 94% 29.98 in 10.0 mi SSE 9.2 mph - N/A   Overcast
1:55 AM 70.9 °F 68.9 °F 93% 29.98 in 10.0 mi SSE 10.4 mph 16.1 mph N/A   Overcast
2:15 AM 71.2 °F 68.9 °F 92% 29.97 in 10.0 mi South 10.4 mph - N/A   Overcast
2:35 AM 71.6 °F 68.9 °F 91% 29.97 in 10.0 mi South 9.2 mph - N/A   Overcast
2:55 AM 71.8 °F 68.9 °F 91% 29.97 in 10.0 mi South 9.2 mph - N/A   Overcast
3:15 AM 72.1 °F 68.7 °F 89% 29.97 in 10.0 mi South 11.5 mph - N/A   Overcast
3:35 AM 72.1 °F 68.5 °F 88% 29.96 in 10.0 mi SSE 11.5 mph 17.3 mph N/A   Overcast
3:55 AM 72.1 °F 68.4 °F 88% 29.97 in 10.0 mi South 10.4 mph 17.3 mph N/A   Overcast
4:15 AM 72.0 °F 68.2 °F 88% 29.97 in 10.0 mi South 9.2 mph - N/A   Overcast
4:35 AM 72.1 °F 68.0 °F 87% 29.97 in 10.0 mi South 9.2 mph 18.4 mph N/A   Overcast
4:55 AM 72.1 °F 68.0 °F 87% 29.97 in 10.0 mi South 8.1 mph - N/A   Overcast
5:15 AM 71.8 °F 67.6 °F 87% 29.96 in 10.0 mi South 9.2 mph - N/A   Overcast
5:35 AM 71.6 °F 67.8 °F 88% 29.97 in 10.0 mi South 8.1 mph - N/A   Overcast
5:55 AM 71.6 °F 68.0 °F 88% 29.96 in 10.0 mi SSE 8.1 mph - N/A   Overcast
6:15 AM 71.1 °F 67.6 °F 89% 29.97 in 10.0 mi South 8.1 mph - N/A   Overcast
6:35 AM 71.1 °F 68.0 °F 90% 29.97 in 10.0 mi South 5.8 mph - N/A   Overcast
6:55 AM 71.6 °F 68.0 °F 88% 29.96 in 10.0 mi SSE 6.9 mph - N/A   Overcast
7:55 AM 71.6 °F 68.0 °F 88% 29.94 in 10.0 mi SSE 6.9 mph - N/A   Overcast
8:55 AM 71.6 °F 68.0 °F 88% 29.95 in 10.0 mi South 8.1 mph - N/A   Overcast
11:55 AM 71.6 °F 69.8 °F 94% 29.94 in 5.0 mi SE 11.5 mph - N/A Rain Light Rain
12:55 PM 69.8 °F 68.0 °F 94% 29.92 in 5.0 mi SE 13.8 mph 20.7 mph N/A Rain Light Rain
1:55 PM 69.8 °F 68.0 °F 94% 29.89 in 7.0 mi SSE 15.0 mph 26.5 mph N/A Rain Light Rain
4:55 PM 68.0 °F 66.2 °F 94% 29.83 in 10.0 mi SE 11.5 mph 19.6 mph N/A   Overcast
5:55 PM 68.0 °F 64.4 °F 88% 29.85 in 10.0 mi SE 5.8 mph - N/A   Overcast
6:55 PM 66.2 °F 66.2 °F 100% 29.84 in 10.0 mi SE 12.7 mph - N/A   Overcast
7:55 PM 66.2 °F 66.2 °F 100% 29.85 in 10.0 mi SE 8.1 mph - N/A   Overcast
8:55 PM 66.2 °F 64.4 °F 94% 29.84 in 10.0 mi ESE 9.2 mph - N/A   Overcast
9:55 PM 66.2 °F 64.4 °F 94% 29.83 in 10.0 mi ESE 8.1 mph 17.3 mph N/A   Overcast
11:35 PM 65.8 °F 65.1 °F 98% 29.79 in 10.0 mi SE 4.6 mph - N/A Rain Light Rain
11:55 PM 66.2 °F 65.3 °F 97% 29.78 in 10.0 mi SE 5.8 mph - N/A Rain Light Rain